Flag for Switzerland Weather past 2 weeks in Mendrisio, Ticino, Switzerland

Now
56 °F

Cool.


Feels Like: 56 °F
Forecast: 49 / 61 °F
Wind: 1 mph from South

Location: Stabio

Current Time: May 30, 2015 at 5:00:19 AM

Latest Report: May 30, 2015 at 4:00 AM


Visibility: N/A

Pressure: 29.96 "Hg

Humidity: 97%

Dew point: 56 °F

Location of MendrisioLocation

Historic Weather in Mendrisio — Graph

°F

Mendrisio temperature yesterday

Maximum temperature yesterday: 74 °F (at 3:00 PM)
Minimum temperature yesterday: 49 °F (at 6:00 AM)
Average temperature yesterday: 61 °F

Past Weeks' High & Low Weather Summary

 TemperatureHumidityPressure
High78 °F (May 17, 3:00 PM)100% (May 17, 6:00 AM)30.17 "Hg (May 17, 6:00 AM)
Low43 °F (May 22, 4:00 AM)18% (May 27, 7:00 PM)29.56 "Hg (May 15, 2:00 PM)
Average60 °F71%29.92 "Hg
* Reported May 15 3:00 AM — May 30 3:00 AM, Mendrisio, Weather by CustomWeather, © 2015

Note: Actual official high and low records may vary slightly from our data, if they occured in-between our weather recording intervals... More about our weather records

Advertising

Mendrisio weather history for previous 24 hours

 ConditionsComfort  
Time TempWeatherWind HumidityBarometerVisibility
3:00 AM
Sat, May 30
54 °FCool.2 mph94%29.95 "HgN/A
2:00 AM55 °FCool.2 mph87%29.96 "HgN/A
1:00 AM56 °FCool.No wind89%29.97 "HgN/A
12:00 AM57 °FCool.No wind80%29.96 "HgN/A
11:00 PM
Fri, May 29
56 °FCool.1 mph78%29.96 "HgN/A
10:00 PM58 °FCool.1 mph73%29.95 "HgN/A
9:00 PM61 °FCool.1 mph67%29.93 "HgN/A
8:00 PM67 °FMild.1 mph62%29.91 "HgN/A
7:00 PM69 °FMild.2 mph51%29.90 "HgN/A
6:00 PM71 °FMild.3 mph49%29.90 "HgN/A
5:00 PM71 °FMild.3 mph47%29.91 "HgN/A
4:00 PM70 °FMild.6 mph53%29.93 "HgN/A
3:00 PM74 °FMild.5 mph50%29.93 "HgN/A
2:00 PM69 °FMild.3 mph54%29.96 "HgN/A
1:00 PM70 °FMild.3 mph51%29.98 "HgN/A
12:00 PM69 °FMild.2 mph57%29.99 "HgN/A
11:00 AM66 °FMild.2 mph57%30.01 "HgN/A
10:00 AM64 °FMild.2 mph67%30.01 "HgN/A
9:00 AM60 °FCool.2 mph75%30.03 "HgN/A
8:00 AM56 °FCool.No wind87%30.03 "HgN/A
7:00 AM50 °FCool.No wind94%30.04 "HgN/A
6:00 AM49 °FCool.No wind91%30.04 "HgN/A
5:00 AM49 °FCool.No wind91%30.04 "HgN/A
Weather by CustomWeather, © 2015

See weather overviewHow to use our weather pages